[[{"header":{"parameterUnit":"m.s-1","parameterCategory":1,"la1":30.2991,"la2":30.254,"lo1":-89.0895,"lo2":-89.0444,"dy":0.0017,"dx":0.0017,"nx":28,"ny":28,"refTime":"2023-08-19T03:00:00:Z","depth":0,"parameterNumber":2,"parameterNumberName":"U-component_of_WINDS"},"data":[0,0,0,0,0,0,0,0,0,0,0,0,0,0,0,0,0,0,0,0,0,0,0,0,0,0,0,0,0,0,0,0,0,0,0,0,0,0,0,0,0,0,0,0,0,0,0,0,0,0,0,0,0,0,0,0,0,0,-2.9734,-2.9735,0,-2.9823,-2.9824,-2.9825,-2.9814,-2.9813,-2.9811,-2.981,-2.9902,-2.9905,-2.9909,0,0,0,0,0,0,0,0,0,0,0,0,0,-2.9557,-2.956,-2.9734,-2.9735,-2.9736,-2.9823,-2.9824,-2.9825,-2.9814,-2.9813,-2.9811,-2.9809,-2.9901,-2.9905,-2.991,0,0,0,0,0,0,0,0,0,0,0,0,0,-2.9638,-2.9561,-2.9734,-2.9741,-2.9743,-2.9822,-2.9824,-2.9825,-2.9815,-2.9812,-2.981,-2.9808,-2.9899,-2.9905,-2.991,-2.9988,0,0,-2.9928,-2.993,0,0,0,0,0,0,0,0,-2.9634,-2.9645,-2.9739,-2.9741,-2.9743,-2.9805,-2.9795,-2.988,-2.9815,-2.9787,-2.981,-2.9807,-2.9871,-2.9879,-2.9901,-2.9993,-2.9997,-2.9928,-2.9932,-2.9934,-2.9936,0,0,0,0,0,0,0,-2.9628,-2.9641,-2.9769,-2.974,-2.9743,-2.9741,-2.975,-2.9811,-2.984,-2.979,-2.9789,-2.98,-2.9872,-2.9895,-2.9903,-2.9998,-2.9928,-2.9933,-2.9936,-2.9939,-3.016,-3.0162,0,0,0,0,0,0,-2.962,-2.9636,-2.9766,-2.9772,-2.9682,-2.9746,-2.9756,-2.9787,-2.984,-2.9846,-2.9801,-2.9799,-2.9887,-2.9896,-2.9906,-3.0001,-2.9934,-2.9939,-2.9943,-3.0157,-3.016,-3.0163,0,0,0,0,0,0,-2.9616,-2.9632,-2.9763,-2.9704,-2.972,-2.9751,-2.9786,-2.979,-2.9813,-2.9849,-2.9854,-2.982,-2.9885,-2.9898,-2.9968,-3.0004,-2.9942,-2.9947,-3.0154,-3.0158,-3.0162,-3.0191,0,0,0,0,0,0,-2.9611,-2.9631,-2.966,-2.9705,-2.9724,-2.9823,-2.9788,-2.9793,-2.9823,-2.982,-2.9867,-2.9873,-2.9885,-2.996,-2.9974,-3.0011,-2.9951,-3.0151,-3.0156,-3.016,-3.0187,-3.0195,-3.0203,0,0,0,0,0,-2.9605,-2.9665,-2.9662,-2.9677,-2.9761,-2.9825,-2.9836,-2.9848,-2.9826,-2.9856,-2.9879,-2.9871,-2.9998,-2.9967,-2.9983,-3.0022,-3.0149,-3.0155,-3.016,-3.0184,-3.0194,-3.0202,0,0,0,0,0,0,-2.9624,-2.9671,-2.9668,-2.9744,-2.978,-2.9823,-2.9861,-2.9858,-2.9902,-2.9897,-2.9911,-2.9922,-2.9993,-3.0015,-2.9979,-3.0101,-3.0071,-3.008,-3.0083,-3.0093,-3.0101,-3.0093,-2.9956,0,0,0,0,0,-2.9637,-2.9684,-2.9723,-2.9786,-2.9805,-2.983,-2.9858,-2.9865,-2.9903,-2.9919,-2.9947,-2.9985,-3.0033,-3.0065,-3.0111,-3.0191,-3.0201,-3.0226,-3.0234,-3.024,-3.0247,-3.0291,-3.0302,-3.0181,-3.0181,-3.0181,0,0,-2.9664,-2.9696,-2.9725,-2.9791,-2.982,-2.9869,-2.9843,-2.9896,-2.9933,-2.9927,-2.9994,-3.0017,-3.006,-3.0135,-3.017,-3.0156,-3.0283,-3.0247,-3.0251,-3.0255,-3.0298,-3.0309,-3.0319,-3.0185,-3.0184,-3.0184,0,0,-2.9738,-2.9767,-2.9823,-2.9853,-2.9897,-2.9914,-2.9927,-2.9971,-2.9985,-3.0054,-3.005,-3.0095,-3.0178,-3.0209,-3.0236,-3.0324,-3.0319,-3.0339,-3.0379,-3.0422,-3.0431,-3.044,-3.047,-3.0481,-3.0347,-3.0347,-3.0347,0,-2.9766,-2.9839,-2.9852,-2.9906,-2.9935,-2.9933,-2.9989,-3.0018,-3.0076,-3.0096,-3.008,-3.0185,-3.0214,-3.0297,-3.0318,-3.0341,-3.0356,-3.0333,-3.0429,-3.0437,-3.0445,-3.0475,-3.0487,-3.0349,-3.0349,-3.0348,-3.0348,0,-2.9871,-2.9923,-2.9963,-3.0018,-3.0052,-3.0107,-3.0129,-3.0162,-3.0166,-3.0185,-3.0255,-3.029,-3.0344,-3.0365,-3.0369,-3.0448,-3.0438,-3.0425,-3.0395,-3.0459,-3.0487,-3.0498,-3.0352,-3.0351,-3.035,-3.035,0,0,-2.9958,-3.002,-3.0035,-3.006,-3.011,-3.015,-3.0206,-3.0258,-3.0286,-3.0327,-3.0374,-3.0445,-3.0434,-3.0465,-3.0473,-3.0511,-3.0578,-3.0493,-3.0495,-3.0507,-3.0667,-3.0675,-3.0688,-3.0576,-3.0578,-3.058,-3.0663,0,-3.0036,-3.0133,-3.0147,-3.0233,-3.028,-3.028,-3.0328,-3.0365,-3.0384,-3.0428,-3.045,-3.05,-3.0481,-3.05,-3.0537,-3.0562,-3.061,-3.0556,-3.0619,-3.0621,-3.0606,-3.0703,-3.0712,-3.0788,-3.0674,-3.0676,-3.0677,0,-3.0139,-3.0182,-3.0273,-3.0317,-3.0337,-3.0381,-3.043,-3.0472,-3.0514,-3.0526,-3.0561,-3.0565,-3.0623,-3.0592,-3.0673,-3.0636,-3.0663,-3.068,-3.0683,-3.0688,-3.0652,-3.0709,-3.0813,-3.0824,-3.0695,-3.0694,-3.0692,0,-3.0192,-3.0273,-3.0338,-3.036,-3.0413,-3.0443,-3.0467,-3.0506,-3.0537,-3.0581,-3.0602,-3.0652,-3.068,-3.0719,-3.0737,-3.0713,-3.0817,-3.0787,-3.0828,-3.0828,-3.0848,-3.0846,-3.0957,-3.0869,-3.0868,-3.0868,-3.0868,0,-3.0277,-3.0332,-3.0362,-3.0401,-3.0464,-3.048,-3.0542,-3.0565,-3.06,-3.0645,-3.0648,-3.069,-3.0712,-3.0758,-3.0773,-3.0838,-3.0851,-3.0862,-3.0865,-3.086,-3.0859,-3.0877,-3.0872,-3.0871,-3.0871,-3.087,-3.0869,0,-3.0345,-3.0367,-3.0437,-3.0482,-3.0495,-3.0539,-3.0578,-3.0617,-3.0637,-3.0693,-3.0708,-3.0739,-3.0793,-3.0816,-3.0882,-3.0892,-3.0966,-3.0966,-3.0952,-3.0952,-3.0991,-3.0987,-3.1116,-3.1134,-3.1035,-3.1036,-3.1037,0,-3.0396,-3.0439,-3.0489,-3.0518,-3.0543,-3.0591,-3.0623,-3.0641,-3.0674,-3.0726,-3.0759,-3.0813,-3.0857,-3.0944,-3.0973,-3.1024,-3.1024,-3.1066,-3.1032,-3.1027,-3.1024,-3.102,-3.1025,-3.1072,-3.1073,-3.1074,-3.1074,0,-3.0486,-3.0495,-3.054,-3.059,-3.0627,-3.0667,-3.0706,-3.0731,-3.0756,-3.0793,-3.0848,-3.0882,-3.0951,-3.1004,-3.1058,-3.1083,-3.1083,-3.1085,-3.1097,-3.1092,-3.1082,-3.1087,-3.0967,-3.1082,-3.1081,-3.108,-3.108,-3.108,-3.0547,-3.0584,-3.0625,-3.0676,-3.0707,-3.0744,-3.0783,-3.0808,-3.0854,-3.091,-3.0919,-3.0978,-3.102,-3.1091,-3.1119,-3.1166,-3.1156,-3.1173,-3.1177,-3.1181,-3.1183,-3.1076,-3.1176,-3.1176,-3.1176,-3.1176,-3.1176,0,-3.0635,-3.0662,-3.0708,-3.0762,-3.0802,-3.0799,-3.0843,-3.0877,-3.0928,-3.0967,-3.1011,-3.1075,-3.1127,-3.1161,-3.1215,-3.1246,-3.1247,-3.1259,-3.1256,-3.1262,-3.119,-3.1174,-3.1257,-3.1257,-3.1257,-3.1257,-3.1257,-3.1257,-3.0686,-3.0749,-3.0764,-3.0843,-3.087,-3.0927,-3.0952,-3.0986,-3.1018,-3.1088,-3.1132,-3.1154,-3.1191,-3.1248,-3.1296,-3.1305,-3.1324,-3.1336,-3.1344,-3.1276,-3.1267,-3.1259,-3.1244,-3.1341,-3.1341,-3.1413,-3.1413,-3.1414]},{"header":{"parameterUnit":"m.s-1","parameterCategory":1,"la1":30.2991,"la2":30.254,"lo1":-89.0895,"lo2":-89.0444,"dy":0.0017,"dx":0.0017,"nx":28,"ny":28,"refTime":"2023-08-19T03:00:00:Z","depth":0,"parameterNumber":3,"parameterNumberName":"V-component_of_WINDS"},"data":[0,0,0,0,0,0,0,0,0,0,0,0,0,0,0,0,0,0,0,0,0,0,0,0,0,0,0,0,0,0,0,0,0,0,0,0,0,0,0,0,0,0,0,0,0,0,0,0,0,0,0,0,0,0,0,0,0,0,2.6638,2.6638,0,2.6666,2.6666,2.6666,2.6709,2.671,2.6711,2.6711,2.6736,2.6736,2.6736,0,0,0,0,0,0,0,0,0,0,0,0,0,2.6619,2.6619,2.6638,2.6638,2.6639,2.6666,2.6666,2.6666,2.6709,2.671,2.6711,2.6712,2.6736,2.6736,2.6736,0,0,0,0,0,0,0,0,0,0,0,0,0,2.6635,2.6619,2.6638,2.6663,2.6666,2.6666,2.6666,2.6666,2.6709,2.671,2.6711,2.6712,2.6736,2.6736,2.6736,2.6712,0,0,2.6735,2.6735,0,0,0,0,0,0,0,0,2.6634,2.6635,2.6659,2.6661,2.6664,2.6685,2.6668,2.6681,2.6708,2.6692,2.6711,2.6713,2.6718,2.6719,2.6722,2.6713,2.6714,2.6735,2.6735,2.6735,2.6735,0,0,0,0,0,0,0,2.6633,2.6634,2.6649,2.6659,2.6663,2.6672,2.6676,2.6671,2.6698,2.6694,2.6697,2.67,2.6719,2.6722,2.6723,2.6714,2.6735,2.6735,2.6735,2.6735,2.6688,2.6687,0,0,0,0,0,0,2.6628,2.6633,2.6648,2.665,2.6652,2.6672,2.6676,2.6677,2.6698,2.6703,2.6699,2.6702,2.6721,2.6723,2.6724,2.6697,2.6735,2.6735,2.6735,2.6689,2.6687,2.6686,0,0,0,0,0,0,2.6628,2.6629,2.6647,2.6642,2.6645,2.6671,2.6672,2.6677,2.668,2.6702,2.6707,2.6696,2.6722,2.6724,2.6715,2.6699,2.6735,2.6735,2.669,2.6688,2.6687,2.6644,0,0,0,0,0,0,2.6627,2.6629,2.662,2.6642,2.6645,2.6638,2.6671,2.6677,2.668,2.6684,2.6701,2.6705,2.6723,2.6715,2.6715,2.6699,2.6735,2.6692,2.6689,2.6687,2.6647,2.6641,2.6636,0,0,0,0,0,2.6626,2.6606,2.662,2.6621,2.6636,2.6637,2.6639,2.6661,2.6678,2.667,2.6684,2.6704,2.6701,2.6713,2.6714,2.6698,2.6693,2.669,2.6687,2.6649,2.6642,2.6636,0,0,0,0,0,0,2.658,2.6609,2.6625,2.6611,2.6622,2.6644,2.6634,2.6653,2.6658,2.6661,2.6688,2.6691,2.6679,2.6688,2.6701,2.6676,2.67,2.6697,2.6671,2.6664,2.6658,2.6656,2.6735,0,0,0,0,0,2.6569,2.6569,2.6594,2.6579,2.6584,2.6608,2.6609,2.6626,2.6637,2.6641,2.6655,2.6664,2.6666,2.6665,2.6667,2.6649,2.6653,2.6638,2.6632,2.6628,2.6625,2.6615,2.6609,2.6677,2.6677,2.6677,0,0,2.6545,2.6561,2.6559,2.6571,2.6581,2.6579,2.6611,2.6608,2.6607,2.6641,2.6633,2.6644,2.6656,2.6642,2.6636,2.6649,2.6607,2.6624,2.662,2.662,2.6612,2.6605,2.66,2.6675,2.6676,2.6676,0,0,2.65,2.6512,2.6502,2.6512,2.6527,2.6544,2.6541,2.6561,2.657,2.6564,2.6589,2.6588,2.6589,2.6596,2.66,2.656,2.6578,2.656,2.653,2.6521,2.6516,2.6511,2.6496,2.649,2.6557,2.6557,2.6557,0,2.6467,2.6467,2.6494,2.6489,2.6494,2.6526,2.6516,2.6524,2.6538,2.654,2.6554,2.6557,2.6567,2.6555,2.6546,2.6548,2.6545,2.6557,2.6514,2.651,2.6506,2.6492,2.6487,2.6554,2.6555,2.6555,2.6555,0,2.6426,2.6426,2.6415,2.643,2.6434,2.6426,2.6451,2.6451,2.6468,2.6483,2.6476,2.6489,2.6495,2.6494,2.6509,2.6484,2.6492,2.651,2.6534,2.6497,2.6484,2.6479,2.6551,2.6552,2.6552,2.6553,0,0,2.6351,2.6383,2.6379,2.6386,2.6406,2.6406,2.64,2.6407,2.6406,2.6415,2.641,2.6411,2.6429,2.6433,2.645,2.6442,2.6409,2.6461,2.6462,2.6451,2.6382,2.6368,2.6361,2.6422,2.6421,2.642,2.6381,0,2.631,2.6303,2.6327,2.6313,2.6312,2.6344,2.6339,2.635,2.6364,2.6365,2.638,2.638,2.6403,2.6406,2.64,2.6414,2.6395,2.6418,2.6416,2.6416,2.6412,2.6355,2.634,2.6301,2.6376,2.6375,2.6375,0,2.626,2.6269,2.6255,2.6277,2.6278,2.6272,2.6281,2.6282,2.6295,2.6306,2.6312,2.6333,2.6327,2.6351,2.6344,2.6359,2.636,2.6367,2.6366,2.6366,2.6392,2.6352,2.629,2.6284,2.6367,2.6368,2.6368,0,2.6207,2.6215,2.6208,2.6213,2.6238,2.6234,2.6244,2.6259,2.6262,2.627,2.6272,2.6278,2.6281,2.6285,2.6306,2.6322,2.6296,2.6322,2.6304,2.6303,2.6296,2.6296,2.6232,2.6298,2.6298,2.6298,2.6298,0,2.6157,2.6147,2.6184,2.6179,2.6169,2.6198,2.6186,2.62,2.6213,2.6211,2.6238,2.6235,2.6265,2.6265,2.6281,2.6273,2.6274,2.6281,2.6286,2.6279,2.6277,2.6279,2.6282,2.6297,2.6297,2.6297,2.6298,0,2.6095,2.6119,2.6114,2.6139,2.6145,2.6136,2.6158,2.6154,2.6171,2.6168,2.6169,2.6194,2.6196,2.6218,2.6224,2.6235,2.6219,2.6229,2.6215,2.6218,2.6198,2.62,2.6132,2.6125,2.6196,2.6195,2.6195,0,2.6061,2.6055,2.608,2.6082,2.6091,2.6093,2.6097,2.6124,2.6127,2.6143,2.6137,2.6141,2.6146,2.6147,2.6165,2.617,2.618,2.6156,2.6181,2.6174,2.6179,2.6179,2.6178,2.615,2.6149,2.6149,2.6148,0,2.5999,2.6012,2.6017,2.6027,2.6031,2.6039,2.6049,2.6049,2.6079,2.6081,2.6084,2.6088,2.6095,2.6099,2.6108,2.6117,2.6137,2.6141,2.6137,2.6129,2.6121,2.6124,2.62,2.6142,2.6142,2.6143,2.6143,2.6143,2.595,2.5946,2.5963,2.5968,2.5979,2.5988,2.5987,2.6004,2.6007,2.6017,2.6033,2.6033,2.6047,2.6061,2.6069,2.6069,2.6081,2.6075,2.6074,2.6072,2.6068,2.6122,2.6071,2.6071,2.6071,2.6071,2.6071,0,2.5888,2.5902,2.5906,2.5921,2.5925,2.5946,2.5958,2.596,2.596,2.5973,2.5978,2.5981,2.5985,2.6005,2.6011,2.6007,2.6017,2.6008,2.6008,2.6009,2.6057,2.6059,2.6,2.6,2.6,2.6,2.6,2.6,2.5857,2.5851,2.5866,2.5867,2.588,2.5882,2.5887,2.5896,2.5906,2.5909,2.5914,2.5927,2.5942,2.5949,2.5954,2.5959,2.596,2.5947,2.5956,2.5999,2.6006,2.6013,2.6015,2.5947,2.5947,2.5909,2.5908,2.5908]}]]